Theta_e
308 309 310 310 310 311 311 310 309 309 308 308 308 309 309 313 317 319 326 324 324 319 323 327 327 327 326 328 329 333 340 342 343 344 342 341 343 342 341 342 342 342 342 342 343
308 310 310 311 311 311 311 311 310 309 309 309 308 309 309 319 329 325 321 320 320 317 325 327 328 326 328 330 331 332 340 339 340 341 340 341 343 342 344 345 345 343 343 342 341
309 310 311 311 312 312 311 311 311 310 309 309 309 309 310 321 333 328 320 320 319 320 324 324 325 328 332 334 336 339 341 340 341 341 342 343 342 343 344 346 345 345 344 341 338
309 311 312 312 312 312 311 311 312 313 311 309 309 309 312 329 332 328 323 323 320 320 322 326 329 335 338 338 338 339 341 341 342 341 342 343 342 343 345 344 343 344 342 337 332
309 311 312 312 312 312 312 313 315 315 314 311 310 310 318 331 331 322 322 321 320 321 324 330 336 337 338 339 339 342 343 342 341 342 341 342 345 346 345 343 344 343 340 335 330
310 312 312 313 313 313 313 314 316 316 315 312 311 311 326 329 327 322 323 321 323 323 328 330 336 337 338 339 339 342 342 342 342 341 341 344 346 345 344 344 345 343 340 334 330
311 312 313 313 313 313 313 315 316 318 314 312 311 315 326 327 325 322 322 323 324 324 329 329 335 335 339 341 341 342 344 343 341 340 341 343 345 347 344 344 345 344 341 336 332
311 313 313 314 314 314 314 316 316 315 316 314 315 324 329 323 326 325 325 324 323 325 327 331 330 338 340 341 343 345 346 353 343 340 341 343 352 348 345 345 345 344 343 339 334
312 313 314 314 314 314 315 317 316 316 316 316 323 329 327 321 323 325 326 327 327 326 326 329 335 339 341 343 346 346 344 338 345 342 344 343 347 347 343 345 345 344 344 342 339
312 314 314 314 314 314 316 319 318 317 321 322 323 326 325 326 325 324 327 326 328 327 328 331 336 339 341 341 338 337 333 336 340 344 343 345 345 346 344 343 344 343 344 341 341
313 314 314 314 314 314 318 319 324 326 323 324 323 326 326 326 324 325 326 326 328 329 332 332 332 336 333 332 332 332 334 336 338 344 343 343 344 345 345 343 343 345 343 341 340
313 314 314 314 314 315 319 321 319 319 324 323 323 324 324 325 326 327 325 328 329 330 331 331 331 333 332 332 332 333 336 337 340 342 343 345 344 345 345 343 342 343 341 341 339
314 314 314 314 315 318 319 319 318 319 326 323 323 324 325 325 328 328 327 329 330 330 330 330 332 331 332 333 334 335 334 335 335 339 342 341 345 346 344 342 343 342 342 340 339
314 314 314 314 318 319 321 318 319 320 328 323 323 325 325 326 327 329 327 330 330 331 329 330 332 332 333 335 333 342 334 335 337 340 341 337 335 349 347 346 344 343 341 340 339
314 314 314 314 318 320 319 318 319 322 332 325 324 325 326 326 328 327 327 330 330 329 330 330 331 333 334 335 333 335 335 337 338 340 341 345 334 347 346 346 345 343 341 339 339
314 314 314 320 320 321 318 319 323 332 332 325 325 324 324 325 327 328 328 330 330 331 330 331 331 332 336 336 335 336 339 342 342 345 347 342 334 341 344 339 338 341 339 338 338
314 314 314 316 321 319 320 322 331 334 327 324 323 324 325 324 326 328 329 331 331 331 331 330 332 335 336 335 336 336 341 347 345 351 342 339 334 337 338 336 336 337 339 338 338
314 314 319 318 318 319 322 327 334 331 332 329 325 323 325 325 326 328 330 331 331 331 330 332 335 336 335 335 335 338 338 341 342 338 337 345 337 336 336 336 337 337 337 339 338
314 319 322 322 320 319 326 327 334 333 329 329 325 323 325 326 327 328 330 331 332 331 333 334 335 335 334 333 333 338 339 337 339 339 339 341 336 338 337 338 338 339 338 339 338
316 321 322 322 319 321 328 323 331 327 326 328 329 326 327 327 327 328 330 331 332 331 332 334 336 335 334 333 333 335 335 335 338 338 338 335 338 338 335 336 339 339 339 338 340
317 324 325 320 319 324 326 325 327 323 324 329 331 328 328 328 328 328 329 330 331 331 332 333 335 335 336 335 334 336 338 341 340 338 338 342 335 335 336 337 337 338 339 339 340
322 322 324 319 325 323 324 323 314 323 323 326 327 332 331 328 329 330 330 330 330 331 331 332 336 337 335 335 335 333 334 336 337 336 334 335 336 336 336 336 338 337 336 337 338
323 323 323 321 326 324 325 322 322 323 323 326 328 332 332 331 330 329 329 333 333 332 333 335 335 337 336 335 336 339 337 338 336 338 340 338 340 337 341 339 338 336 334 336 337
323 322 325 324 326 330 326 325 324 322 324 327 332 332 332 333 330 332 328 332 335 335 332 337 337 338 338 334 338 340 337 336 335 338 336 334 335 336 342 343 338 337 335 335 336
323 323 330 325 324 324 327 327 324 324 324 330 333 332 332 335 333 331 331 333 334 335 335 341 340 334 335 334 334 335 335 332 333 334 336 335 335 335 337 337 337 337 337 337 335
324 326 327 329 328 325 322 327 326 324 326 329 335 332 333 336 336 337 334 333 333 338 337 343 342 336 334 334 334 332 332 331 331 333 333 334 336 339 337 336 337 338 339 339 338
322 325 333 327 328 327 328 327 327 327 327 328 332 333 333 336 337 339 338 340 341 340 341 343 338 337 335 336 338 332 331 333 330 330 333 337 337 338 338 339 340 340 339 338 337
Wind_Speed
14 15 16 18 19 20 21 20 18 16 14 13 13 13 14 11 5 6 10 4 4 11 11 7 9 9 9 13 10 13 5 11 15 13 16 9 14 14 13 16 15 17 18 16 8
14 16 18 19 20 22 22 21 19 16 14 13 13 13 15 5 5 14 5 8 5 9 9 9 9 6 12 2 2 11 11 17 13 13 10 9 14 9 14 14 15 14 14 11 9
14 16 18 20 22 23 23 23 22 18 15 13 12 13 13 0 11 5 10 7 9 9 10 11 10 11 2 3 6 14 15 12 13 10 13 9 8 14 8 10 10 13 11 12 10
14 17 19 22 23 24 24 25 24 21 15 11 11 11 9 3 5 8 9 7 7 8 11 8 11 14 8 10 2 13 11 10 10 5 6 9 8 11 8 10 13 9 12 11 10
14 17 19 22 24 25 26 26 27 20 12 9 9 9 4 9 7 9 9 7 6 7 11 8 12 4 11 9 12 12 10 9 8 11 9 7 12 13 12 10 11 11 9 10 9
14 16 18 21 24 26 27 26 23 14 9 6 6 8 6 11 7 9 8 8 9 9 7 11 4 9 7 4 9 10 11 11 12 10 10 11 15 10 10 10 10 11 9 9 9
13 16 18 21 25 28 27 25 18 13 5 3 4 4 10 5 7 9 9 8 6 7 7 4 5 7 2 9 11 12 9 7 10 9 9 13 11 10 11 10 11 11 8 8 8
12 15 18 21 25 29 24 26 11 7 6 4 4 5 1 6 6 7 10 8 5 4 5 5 8 1 2 11 5 11 15 9 10 9 7 10 11 12 10 10 10 9 9 8 6
12 15 18 21 25 26 20 21 8 4 8 1 4 8 5 8 8 7 11 12 8 5 3 4 11 1 8 21 1 19 6 7 11 8 2 10 13 16 13 12 11 11 11 9 8
13 14 18 21 26 20 19 20 6 4 4 4 7 6 7 12 10 8 9 6 7 6 7 11 9 7 19 14 1 5 12 8 7 10 5 6 9 15 15 12 10 10 10 9 9
13 14 17 21 24 17 18 9 5 6 12 6 10 4 11 9 7 11 11 10 8 8 16 14 7 16 7 14 11 7 7 5 6 5 6 6 3 13 15 13 9 9 9 10 8
13 15 17 20 20 13 11 9 8 7 7 5 6 8 4 6 10 13 13 10 10 14 9 7 13 10 8 9 5 4 5 12 3 3 6 4 9 12 17 15 14 13 10 10 8
12 14 17 19 12 6 7 7 9 6 7 7 7 7 9 12 15 17 16 17 12 15 8 13 6 4 7 7 7 6 10 9 8 2 10 10 14 12 13 13 14 13 13 10 9
11 14 17 19 8 12 3 8 10 4 6 9 11 7 7 9 13 20 21 15 13 18 14 9 7 6 8 8 10 18 7 5 3 8 0 3 6 13 12 12 12 12 12 12 10
11 13 15 15 12 10 8 11 9 5 4 11 12 7 6 12 12 12 18 15 16 15 3 11 2 7 12 11 5 8 6 7 7 12 8 11 7 10 11 10 13 13 13 11 11
11 13 16 6 10 9 12 12 7 7 3 9 8 11 13 13 9 18 16 13 15 16 13 9 1 7 7 1 4 2 7 8 12 17 3 4 5 7 6 4 5 14 14 10 11
12 14 16 11 9 13 13 10 7 7 7 8 11 9 14 9 14 17 19 18 14 12 12 14 14 6 8 7 4 8 15 4 3 4 5 5 2 8 9 3 6 5 15 15 13
14 16 12 11 11 12 10 8 7 6 4 4 3 6 11 16 13 15 18 17 19 19 14 12 5 4 9 11 7 7 8 8 13 11 10 25 1 6 8 5 4 5 7 14 15
15 11 10 5 7 6 8 9 5 5 4 3 8 9 12 11 6 16 19 19 18 17 15 9 5 13 8 3 8 2 7 9 9 14 5 2 8 14 5 3 1 6 8 10 10
10 10 10 3 4 7 7 6 1 2 4 5 8 6 10 12 10 13 17 17 15 17 17 9 5 11 13 7 10 9 10 10 7 9 10 7 9 5 6 8 4 4 7 9 7
9 5 6 3 5 6 8 4 2 4 3 4 4 2 7 9 11 12 11 11 16 11 10 12 5 3 7 10 14 7 11 7 17 5 10 12 9 8 5 6 3 2 7 8 10
11 7 5 5 7 4 6 2 1 2 2 2 4 4 5 4 6 5 4 6 5 12 12 13 5 12 14 7 13 10 14 8 7 12 14 12 11 6 2 4 5 2 5 7 8
7 4 5 6 6 7 3 4 2 3 1 2 2 2 2 3 5 7 3 8 3 8 5 4 6 10 17 6 4 10 22 19 8 4 15 10 7 5 16 3 4 3 2 4 5
4 5 4 6 4 9 3 4 5 5 7 4 5 4 4 4 6 5 6 5 3 5 5 3 9 10 14 9 4 7 23 22 10 7 14 16 15 6 14 17 4 2 1 4 9
5 5 4 6 8 8 2 1 6 6 7 4 6 7 2 4 7 9 7 11 7 5 5 4 9 15 14 15 9 8 17 13 10 11 13 18 20 15 11 4 4 5 3 4 5
3 4 5 3 3 8 6 7 7 6 5 8 9 3 3 6 7 8 5 7 11 8 7 4 9 9 13 13 10 13 12 15 13 9 12 16 15 15 7 14 5 1 3 6 6
5 6 6 7 8 8 10 9 6 2 7 9 5 5 8 5 5 7 4 4 5 4 8 6 9 5 14 9 18 11 6 11 11 11 12 9 13 10 10 3 6 7 8 7 8
Wind_Direction
352 355 360 358 353 354 351 349 349 348 339 332 332 331 332 330 174 184 203 128 174 171 181 218 237 252 264 265 282 277 27 73 52 156 85 93 85 63 87 82 68 68 74 92 105
352 351 352 354 352 352 350 346 343 342 335 328 329 330 335 335 234 204 107 147 202 163 198 212 222 238 252 289 298 286 51 57 47 52 77 104 102 122 109 102 96 91 84 93 93
352 346 348 352 351 351 347 342 337 334 328 321 323 329 338 211 239 133 121 138 167 181 258 270 283 250 196 334 5 19 59 76 63 41 78 74 125 110 91 105 135 101 110 92 88
347 347 349 349 350 350 344 339 333 325 319 312 316 325 334 227 190 112 150 170 193 220 264 245 229 235 56 72 53 81 68 75 77 72 70 66 132 82 92 91 83 102 103 106 92
344 346 347 346 347 347 342 337 333 323 311 298 305 317 299 220 80 136 157 188 214 232 249 246 254 28 89 95 111 96 96 105 100 81 71 122 97 105 108 110 113 113 132 109 109
344 344 346 346 345 344 341 338 338 338 331 286 289 305 247 242 118 146 165 195 223 225 235 234 346 59 66 45 31 123 135 132 124 120 117 116 120 131 132 133 143 154 137 133 115
343 342 346 345 343 342 340 337 336 331 340 295 282 287 258 59 135 157 179 206 218 260 282 301 35 306 102 114 134 130 138 128 142 120 131 137 172 118 145 179 157 161 153 138 137
339 340 344 343 341 340 336 336 337 335 349 283 280 251 20 136 154 174 188 197 218 250 312 282 225 28 328 93 153 151 299 157 135 155 144 234 140 145 168 183 171 172 155 167 140
335 341 340 342 340 339 334 339 329 303 322 277 242 222 168 142 190 187 197 198 190 229 252 263 246 145 155 80 15 277 191 96 135 184 130 258 134 161 183 206 177 191 164 175 181
333 338 339 342 341 341 333 321 305 277 295 246 265 239 174 193 157 183 191 213 202 207 197 228 221 39 295 149 251 309 358 78 83 134 219 240 113 158 187 201 193 208 169 188 194
328 336 339 342 342 344 339 289 263 194 229 342 168 317 124 128 177 201 184 203 222 224 236 203 239 249 314 1 353 341 329 23 73 94 262 255 266 169 190 197 213 209 179 207 198
326 335 337 339 340 348 317 25 28 334 292 201 226 260 249 232 188 191 182 208 207 233 239 246 255 55 355 321 297 289 312 50 139 138 245 149 250 178 190 198 204 205 219 200 189
322 333 335 336 334 309 337 8 328 312 252 157 191 206 187 199 213 182 192 214 211 237 239 278 22 9 313 253 259 37 7 4 355 215 233 278 220 192 192 198 208 214 195 227 182
319 330 335 338 298 333 268 335 331 320 256 141 185 188 189 222 221 190 199 212 235 247 241 265 56 325 257 264 323 82 341 308 281 276 205 276 325 176 191 205 209 217 217 210 203
315 324 330 334 308 313 335 323 326 262 193 159 143 122 177 206 174 202 194 223 256 230 301 238 250 243 261 33 332 15 319 287 283 266 277 178 299 145 172 192 211 216 217 213 212
311 319 325 317 282 281 315 311 279 236 133 155 156 187 190 213 206 173 194 229 239 266 207 271 53 297 32 153 300 21 263 3 298 328 129 315 20 75 123 7 251 186 197 179 216
307 310 308 295 294 321 316 273 238 266 144 155 186 185 196 185 192 168 194 200 220 233 222 222 219 160 202 178 190 263 296 251 222 247 159 82 211 32 30 39 311 212 180 182 199
305 302 294 269 288 308 290 254 265 49 82 88 247 204 202 176 202 200 198 205 217 226 247 253 150 215 196 259 330 220 330 355 315 337 340 17 356 88 56 35 326 278 207 185 192
304 283 256 246 284 291 269 244 24 41 7 290 169 205 203 183 240 198 206 217 213 227 251 286 198 180 172 259 267 181 284 355 307 304 271 169 346 109 145 133 291 244 242 195 194
305 279 245 261 268 260 253 288 65 43 321 226 253 258 183 188 213 198 200 218 225 218 241 305 241 213 156 222 239 268 332 291 212 304 339 303 35 317 43 46 89 243 225 228 182
276 239 118 205 249 239 249 94 141 81 347 302 351 220 279 175 224 186 213 211 223 203 252 256 240 149 298 214 257 170 273 43 292 299 316 338 333 79 15 62 39 233 194 215 205
267 231 124 188 236 240 267 85 19 308 195 240 271 306 313 251 233 257 237 197 202 242 222 238 274 262 249 16 297 292 282 266 327 327 329 298 298 178 264 122 125 269 201 215 210
248 239 152 219 246 209 113 223 263 262 271 285 253 308 347 280 236 257 213 78 103 238 260 189 238 255 255 261 319 2 312 319 256 315 270 286 321 261 15 266 155 170 243 198 221
265 208 159 216 288 307 174 212 210 211 265 262 287 239 235 233 216 235 236 133 163 234 30 8 260 267 284 290 142 209 245 262 315 283 301 303 329 304 167 233 139 132 207 236 180
238 232 5 187 201 214 239 96 219 206 227 231 218 248 274 259 202 213 239 144 179 143 201 236 262 260 259 272 272 246 246 300 289 294 285 304 310 307 323 82 91 113 202 268 245
259 235 189 137 328 204 150 214 237 206 234 203 255 128 232 264 356 5 340 211 198 170 218 207 271 280 281 257 264 273 284 284 289 297 309 311 311 27 102 262 74 180 278 291 287
207 285 271 133 201 215 199 229 218 268 240 278 307 287 236 52 331 343 331 328 340 276 209 218 272 255 268 83 235 284 320 334 340 319 318 301 335 333 328 11 358 31 344 349 326